"Pseudo-MPEC" for C1HYMM2

Created 2019 Dec 4 2:07:24 UT using Find_Orb

Click here for an explanation of pseudo-MPECs

 
 Astrometry: 
     C1HYMM2  C2019 12 03.31664 03 29 55.47 +22 32 03.0    ~C38M 20.3 GVNEOCPG96
     C1HYMM2  C2019 12 03.32232 03 30 05.69 +22 33 27.8    ~C38M 20.5 GVNEOCPG96
     C1HYMM2  C2019 12 03.32801 03 30 15.87 +22 34 51.8    ~C38M 20.6 GVNEOCPG96
     C1HYMM2  C2019 12 03.33368 03 30 26.11 +22 36 15.8    ~C38M       VNEOCPG96
     C1HYMM2  C2019 12 03.43026 03 33 20.28 +22 59 26.5    ~C3Ab 20.3 GVNEOCPI52
     C1HYMM2  C2019 12 03.43120 03 33 21.99 +22 59 39.2    ~C3Ab 20.1 GVNEOCPI52
     C1HYMM2  C2019 12 03.43212 03 33 23.70 +22 59 52.4    ~C3Ab 20.2 GVNEOCPI52
     C1HYMM2  C2019 12 03.43305 03 33 25.50 +23 00 05.1    ~C3Ab 19.3 GVNEOCPI52
     C1HYMM2 pC2019 12 03e\;V*^+wO#`oKFb7k-\`MKmh4i50JrO,3_jKkAstrometryhUnNJL01
     C1HYMM2 KC2019 12 03.87131403 47 17.75 +24 41 28.3    ~C3M7 20.2 GVNEOCPJ95
     C1HYMM2 KC2019 12 03.87612803 47 26.28 +24 42 33.5    ~C3M7 19.8 GVNEOCPJ95
     C1HYMM2 KC2019 12 03.88382803 47 39.78 +24 44 17.7    ~C3M7 19.8 GVNEOCPJ95
     C1HYMM2 KC2019 12 03.89653003 48 02.13 +24 47 07.7    ~C3M7 20.5 GVNEOCPJ95
     C1HYMM2 pC2019 12 03?tfufW]qredacted;dMe-;.B%Y;T?(nclick0._xc-gLUSud_w\IL01
     C1HYMM2 IC2019 12 03$!V@/SEBHb*HL8-$!:*h@9uv4`[1Bhere_for6woV,H!)JUEUWqmL01
     C1HYMM2 pC2019 12 03duoexplanationXY7SM3Oas1MoJcl?sRBN5l^Z!;QoZ8:/kgBA(oL01

Station data:
(G96) Mt. Lemmon Survey  (N32.442754 W110.788720)  US/Arizona.  Observers T.
   A. Pruyne, B. M. Africano, E. J. Christensen, G. A. Farneth, D. C. Fuls,
   A. R. Gibbs, A. D. Grauer, H. Gröller, J. A. Johnson, R. A. Kowalski, S.
   M. Larson, G. J. Leonard, D. Rankin, R. L. Seaman, F. C. Shelly. 1.5-m
   reflector + 10K CCD.
(I52) Steward Observatory, Mt. Lemmon Station  (N32.442547 W110.788920)
   US/Arizona.  Observers T. A. Pruyne, B. M. Africano, E. J. Christensen, G.
   A. Farneth, D. C. Fuls, A. R. Gibbs, A. D. Grauer, H. Gröller, J. A.
   Johnson, R. A. Kowalski, S. M. Larson, G. J. Leonard, D. Rankin, R. L.
   Seaman, F. C. Shelly. 1.0-m reflector + CCD.
(J95) Great Shefford  (N51.474969 W1.447003)  UK.  Observer P. Birtwhistle.
   0.40-m f/6.0 Schmidt-Cassegrain + CCD.
(L01) Višnjan Observatory, Tičan  (N45.290900 E13.749300)  Croatia.
   Observers K. Korlević, E. Pettarin. Measurer E. Pettarin. 1.0-m f/2.9
   reflector + CCD.

Orbital elements:  C1HYMM2
   Perihelion 2019 Nov 19.468880 +/- 0.0461 TT = 11:15:11 (JD 2458806.968880)
Epoch 2019 Dec  4.0 TT = JDT 2458821.5   Earth MOID: 0.0172   Ma: 0.0454
M   3.66645396 +/- 0.021            (J2000 ecliptic)          AutoNEOCP
n   0.25231737 +/- 0.00141          Peri.  344.59403 +/- 0.06
a   2.48030226 +/- 0.00922          Node    68.44539 +/- 0.0017
e   0.5969726 +/- 0.0015            Incl.    3.63506 +/- 0.007
P   3.91                   H 27.2   G  0.15   U  8.3  
q 0.99962970 +/- 0.00011    Q 3.96097483 +/- 0.0185
From 16 observations 2019 Dec. 3 (16.3 hr); mean residual 0".55
Residuals in arcseconds: 
191203 G96  1.0-  .84-    191203 I52  .28-  .10-    191203 J95  .70+  .38-    
191203 G96  .02-  .07+    191203 I52  1.1+  .55-    191203 L01  .70-  .48-    
191203 G96  .10+  .24+    191203 L01  .26-  .16+    191203 L01  .24+  .17+    
191203 G96  1.5+  .90+    191203 J95  .56-  .02+    191203 L01  .41-  .19-    
191203 I52  .63-  .31+    191203 J95  .23+  .08+    
191203 I52  .71-  .29-    191203 J95  .23-  .36+    

Ephemerides (geocentric):
Date (UTC) HH   RA              Dec         delta   r     elong  mag " sig PA
---- -- -- --  -------------   -----------  ------ ------ -----  --- ---- ---
2019 12 04 02  03 53 35.317   +25 29 27.62  .03314 1.0182 169.1 20.5 .453 175
2019 12 04 03  03 54 50.135   +25 38 11.57  .03324 1.0183 169.2 20.5 .498   0
2019 12 04 04  03 56 04.722   +25 46 50.22  .03333 1.0184 169.4 20.5 .549   5
2019 12 04 05  03 57 19.074   +25 55 23.58  .03343 1.0186 169.6 20.5 .607  10
2019 12 04 06  03 58 33.187   +26 03 51.66  .03352 1.0187 169.8 20.5 .672  14
2019 12 04 07  03 59 47.058   +26 12 14.46  .03362 1.0188 170.0 20.5 .744  18
2019 12 04 08  04 01 00.684   +26 20 32.01  .03372 1.0189 170.1 20.5 .823  21
2019 12 04 09  04 02 14.061   +26 28 44.32  .03381 1.0190 170.3 20.5 .908  24
2019 12 04 10  04 03 27.187   +26 36 51.41  .03391 1.0191 170.5 20.5 1.00  27
2019 12 04 11  04 04 40.058   +26 44 53.29  .03401 1.0192 170.6 20.5 1.10  29
2019 12 04 12  04 05 52.671   +26 52 49.99  .03412 1.0193 170.8 20.5 1.20  32
2019 12 04 13  04 07 05.025   +27 00 41.51  .03422 1.0194 170.9 20.5 1.31  34
2019 12 04 14  04 08 17.115   +27 08 27.90  .03432 1.0195 171.0 20.5 1.43  36
2019 12 04 15  04 09 28.939   +27 16 09.16  .03443 1.0196 171.1 20.5 1.55  37
2019 12 04 16  04 10 40.494   +27 23 45.32  .03453 1.0197 171.3 20.5 1.68  39
2019 12 04 17  04 11 51.779   +27 31 16.40  .03464 1.0198 171.4 20.5 1.81  40
2019 12 04 18  04 13 02.790   +27 38 42.43  .03474 1.0199 171.5 20.5 1.95  42
2019 12 04 19  04 14 13.525   +27 46 03.44  .03485 1.0201 171.6 20.5 2.09  43
2019 12 04 20  04 15 23.982   +27 53 19.45  .03496 1.0202 171.7 20.5 2.24  44
2019 12 04 21  04 16 34.158   +28 00 30.49  .03507 1.0203 171.8 20.5 2.39  45
2019 12 04 22  04 17 44.052   +28 07 36.58  .03518 1.0204 171.8 20.5 2.55  46
2019 12 04 23  04 18 53.661   +28 14 37.77  .03529 1.0205 171.9 20.5 2.71  47
2019 12 05 00  04 20 02.983   +28 21 34.07  .03541 1.0206 172.0 20.5 2.88  48
2019 12 05 01  04 21 12.017   +28 28 25.51  .03552 1.0207 172.0 20.5 3.04  48
2019 12 05 02  04 22 20.759   +28 35 12.14  .03564 1.0208 172.1 20.5 3.22  49
2019 12 05 03  04 23 29.210   +28 41 53.97  .03575 1.0209 172.1 20.6 3.40  50
2019 12 05 04  04 24 37.366   +28 48 31.05  .03587 1.0211 172.2 20.6 3.58  50
2019 12 05 05  04 25 45.227   +28 55 03.41  .03598 1.0212 172.2 20.6 3.76  51
2019 12 05 06  04 26 52.791   +29 01 31.07  .03610 1.0213 172.2 20.6 3.95  52
2019 12 05 07  04 28 00.055   +29 07 54.08  .03622 1.0214 172.2 20.6 4.15  52
2019 12 05 08  04 29 07.020   +29 14 12.46  .03634 1.0215 172.2 20.6 4.34  53
2019 12 05 09  04 30 13.683   +29 20 26.26  .03646 1.0216 172.2 20.6 4.54  53
2019 12 05 10  04 31 20.043   +29 26 35.50  .03658 1.0217 172.2 20.6 4.74  54
2019 12 05 11  04 32 26.099   +29 32 40.23  .03670 1.0218 172.2 20.6 4.95  54
2019 12 05 12  04 33 31.850   +29 38 40.48  .03682 1.0220 172.2 20.6 5.16  55
2019 12 05 13  04 34 37.295   +29 44 36.29  .03695 1.0221 172.2 20.6 5.37  55
2019 12 05 14  04 35 42.432   +29 50 27.69  .03707 1.0222 172.2 20.6 5.58  56
2019 12 05 15  04 36 47.261   +29 56 14.72  .03720 1.0223 172.1 20.6 5.80  56
2019 12 05 16  04 37 51.782   +30 01 57.42  .03732 1.0224 172.1 20.7 6.02  56
2019 12 05 17  04 38 55.992   +30 07 35.82  .03745 1.0225 172.1 20.7 6.24  57
2019 12 05 18  04 39 59.891   +30 13 09.97  .03758 1.0226 172.0 20.7 6.46  57
2019 12 05 19  04 41 03.479   +30 18 39.90  .03770 1.0228 172.0 20.7 6.69  58
2019 12 05 20  04 42 06.755   +30 24 05.64  .03783 1.0229 171.9 20.7 6.91  58
2019 12 05 21  04 43 09.719   +30 29 27.25  .03796 1.0230 171.8 20.7 7.14  58
2019 12 05 22  04 44 12.369   +30 34 44.75  .03809 1.0231 171.8 20.7 7.38  59
2019 12 05 23  04 45 14.706   +30 39 58.19  .03822 1.0232 171.7 20.7 7.61  59
2019 12 06 00  04 46 16.729   +30 45 07.60  .03835 1.0233 171.6 20.7 7.85  59
2019 12 06 01  04 47 18.438   +30 50 13.02  .03849 1.0235 171.6 20.7 8.09  59